Total_Precipitation_Accumulation
0.61 0.83 1.09 1.03 0.94 1.00 1.04 1.13 1.16 1.07 0.82 0.81 0.78 0.65 0.60 0.62 0.66 0.65 0.57 0.50 0.48 0.50 0.47 0.45 0.48 0.54 0.55 0.58 0.60 0.59 0.56 0.64 0.67 0.71 0.84 1.06 1.35 1.45 1.55 1.47 1.27 1.21 1.32 1.58
0.69 0.75 0.65 0.59 0.69 0.88 1.03 1.21 1.18 1.06 0.75 0.69 0.68 0.58 0.50 0.50 0.57 0.54 0.52 0.49 0.43 0.44 0.38 0.34 0.35 0.39 0.42 0.46 0.52 0.53 0.52 0.59 0.64 0.70 0.86 1.01 1.17 1.18 1.35 1.47 1.43 1.35 1.35 1.50
0.68 0.63 0.50 0.54 0.68 0.91 1.01 1.04 1.01 0.97 0.79 0.68 0.63 0.64 0.47 0.43 0.47 0.44 0.41 0.42 0.38 0.37 0.36 0.33 0.32 0.33 0.34 0.36 0.36 0.38 0.42 0.50 0.61 0.75 0.95 1.16 1.35 1.43 1.50 1.42 1.50 1.51 1.43 1.47
0.61 0.51 0.49 0.60 0.69 0.76 0.94 0.69 0.63 0.70 0.88 0.92 0.73 0.86 0.57 0.47 0.50 0.45 0.39 0.35 0.34 0.34 0.34 0.39 0.35 0.38 0.36 0.33 0.30 0.33 0.42 0.55 0.73 0.93 1.15 1.38 1.58 1.62 1.52 1.55 1.58 1.47 1.39 1.36
0.55 0.45 0.47 0.59 0.56 0.53 0.63 0.53 0.51 0.59 0.76 0.73 0.55 0.66 0.57 0.46 0.56 0.51 0.44 0.39 0.34 0.32 0.34 0.35 0.34 0.38 0.38 0.36 0.38 0.44 0.63 0.85 1.08 1.28 1.53 1.80 1.77 1.66 1.57 1.56 1.55 1.50 1.49 1.46
0.45 0.37 0.42 0.44 0.42 0.40 0.43 0.51 0.56 0.63 0.78 0.77 0.48 0.54 0.59 0.44 0.47 0.50 0.48 0.41 0.33 0.30 0.36 0.43 0.49 0.58 0.63 0.65 0.79 0.97 1.23 1.41 1.49 1.60 1.75 1.86 1.80 1.80 1.75 1.56 1.49 1.48 1.53 1.58
0.48 0.39 0.32 0.29 0.39 0.39 0.42 0.70 1.01 1.05 1.04 0.75 0.39 0.56 0.62 0.43 0.36 0.37 0.39 0.34 0.28 0.33 0.43 0.57 0.73 0.86 0.99 1.13 1.28 1.42 1.57 1.70 1.65 1.62 1.67 1.71 1.69 1.66 1.64 1.57 1.50 1.44 1.46 1.51
0.54 0.51 0.31 0.24 0.31 0.40 0.43 0.64 1.06 1.18 0.99 0.70 0.52 0.76 0.70 0.50 0.37 0.29 0.23 0.22 0.32 0.47 0.61 0.73 0.81 0.92 1.09 1.26 1.34 1.34 1.43 1.53 1.50 1.48 1.46 1.44 1.49 1.49 1.43 1.34 1.31 1.36 1.45 1.45
0.39 0.40 0.20 0.18 0.21 0.27 0.40 0.43 0.48 0.72 0.61 0.62 0.68 0.83 0.72 0.48 0.40 0.32 0.28 0.31 0.45 0.67 0.88 1.03 1.14 1.24 1.28 1.34 1.42 1.34 1.32 1.38 1.39 1.34 1.28 1.27 1.30 1.35 1.34 1.26 1.26 1.25 1.26 1.19
0.24 0.30 0.19 0.16 0.20 0.21 0.31 0.41 0.56 0.85 0.96 0.99 0.93 0.93 0.81 0.61 0.53 0.54 0.61 0.71 0.75 0.85 1.12 1.41 1.65 1.82 1.64 1.38 1.30 1.29 1.23 1.23 1.33 1.31 1.25 1.20 1.26 1.26 1.24 1.24 1.20 1.20 1.20 1.11
0.18 0.29 0.25 0.22 0.26 0.27 0.34 0.48 0.60 0.79 0.90 1.17 1.39 1.34 1.02 1.00 0.98 1.03 1.12 1.16 1.16 1.26 1.26 1.41 1.61 1.78 1.69 1.38 1.16 1.20 1.25 1.24 1.24 1.24 1.25 1.21 1.17 1.08 1.07 1.09 1.08 1.07 1.06 1.10
0.15 0.26 0.29 0.23 0.24 0.31 0.45 0.57 0.73 1.04 0.97 0.96 1.25 1.35 1.07 1.05 1.06 1.13 1.29 1.35 1.34 1.25 1.16 1.15 1.21 1.28 1.31 1.17 0.98 0.95 1.11 1.19 1.17 1.15 1.18 1.15 1.05 0.98 0.95 0.93 0.88 0.78 0.74 0.76
0.20 0.32 0.44 0.43 0.49 0.51 0.67 0.72 0.61 0.63 0.75 0.85 1.12 1.06 0.71 0.65 0.81 0.96 1.11 1.19 1.11 1.06 1.14 1.11 1.03 0.98 1.00 0.96 0.88 0.85 0.98 1.14 1.20 1.19 1.07 0.96 0.91 0.87 0.87 0.79 0.74 0.70 0.62 0.60
0.20 0.27 0.37 0.53 0.54 0.53 0.72 0.80 0.64 0.58 0.72 0.71 0.70 0.61 0.44 0.48 0.64 0.72 0.76 0.76 0.77 0.81 0.84 0.79 0.74 0.69 0.69 0.72 0.75 0.80 0.91 1.00 1.13 1.26 1.17 1.04 0.95 0.89 0.84 0.78 0.74 0.69 0.65 0.66
0.16 0.17 0.16 0.18 0.21 0.28 0.46 0.57 0.48 0.37 0.36 0.45 0.42 0.40 0.45 0.52 0.61 0.58 0.52 0.51 0.50 0.48 0.44 0.43 0.44 0.43 0.43 0.43 0.44 0.52 0.66 0.82 1.00 1.24 1.24 1.11 1.05 0.98 0.84 0.77 0.77 0.73 0.75 0.73
0.13 0.15 0.13 0.12 0.12 0.16 0.27 0.31 0.26 0.19 0.23 0.33 0.38 0.45 0.50 0.56 0.62 0.56 0.47 0.39 0.33 0.31 0.30 0.30 0.29 0.27 0.24 0.24 0.25 0.27 0.38 0.56 0.72 0.90 0.99 0.98 0.89 0.78 0.74 0.74 0.70 0.66 0.65 0.61
0.13 0.16 0.18 0.13 0.11 0.15 0.23 0.22 0.22 0.24 0.25 0.28 0.40 0.52 0.55 0.67 0.84 0.74 0.56 0.45 0.32 0.26 0.25 0.25 0.24 0.24 0.22 0.22 0.22 0.24 0.31 0.39 0.48 0.63 0.74 0.75 0.69 0.62 0.60 0.63 0.60 0.54 0.49 0.50
0.10 0.18 0.26 0.23 0.25 0.36 0.33 0.25 0.31 0.41 0.34 0.33 0.43 0.50 0.59 0.90 1.10 0.72 0.48 0.43 0.35 0.25 0.23 0.23 0.23 0.21 0.19 0.19 0.19 0.22 0.25 0.28 0.32 0.39 0.47 0.48 0.47 0.48 0.49 0.50 0.48 0.46 0.43 0.42
0.07 0.18 0.30 0.33 0.35 0.53 0.44 0.24 0.35 0.42 0.38 0.30 0.39 0.46 0.48 0.52 0.46 0.29 0.19 0.19 0.21 0.16 0.15 0.14 0.14 0.12 0.11 0.11 0.12 0.13 0.16 0.19 0.19 0.21 0.25 0.27 0.29 0.35 0.41 0.42 0.45 0.52 0.52 0.49
0.08 0.14 0.26 0.29 0.31 0.39 0.37 0.17 0.21 0.30 0.38 0.18 0.19 0.22 0.18 0.13 0.14 0.15 0.14 0.10 0.09 0.08 0.08 0.08 0.07 0.06 0.06 0.07 0.08 0.08 0.10 0.12 0.13 0.13 0.15 0.19 0.21 0.26 0.34 0.40 0.42 0.41 0.40 0.45
0.11 0.15 0.21 0.23 0.24 0.19 0.14 0.12 0.15 0.32 0.34 0.14 0.11 0.09 0.06 0.06 0.06 0.09 0.13 0.09 0.07 0.06 0.06 0.06 0.06 0.06 0.07 0.07 0.08 0.07 0.07 0.09 0.12 0.15 0.17 0.20 0.22 0.25 0.29 0.28 0.25 0.28 0.31 0.32
0.14 0.19 0.19 0.18 0.21 0.17 0.10 0.12 0.16 0.17 0.10 0.08 0.07 0.06 0.06 0.05 0.04 0.05 0.08 0.07 0.05 0.05 0.05 0.06 0.07 0.09 0.08 0.08 0.09 0.09 0.10 0.12 0.14 0.16 0.17 0.18 0.17 0.18 0.19 0.20 0.20 0.21 0.24 0.27
0.16 0.18 0.20 0.20 0.20 0.17 0.13 0.12 0.09 0.07 0.07 0.05 0.05 0.05 0.05 0.04 0.03 0.03 0.04 0.04 0.03 0.04 0.07 0.08 0.10 0.15 0.16 0.12 0.10 0.11 0.13 0.15 0.16 0.16 0.16 0.18 0.18 0.18 0.15 0.14 0.18 0.23 0.24 0.26
0.15 0.13 0.18 0.19 0.15 0.14 0.12 0.10 0.07 0.05 0.05 0.04 0.04 0.03 0.03 0.04 0.04 0.03 0.03 0.04 0.04 0.04 0.07 0.11 0.15 0.18 0.22 0.18 0.14 0.13 0.13 0.14 0.15 0.14 0.16 0.18 0.18 0.19 0.16 0.15 0.16 0.18 0.20 0.22
0.15 0.15 0.16 0.17 0.14 0.13 0.12 0.10 0.07 0.05 0.03 0.03 0.04 0.02 0.02 0.02 0.03 0.03 0.03 0.03 0.03 0.04 0.05 0.09 0.16 0.18 0.18 0.18 0.18 0.16 0.15 0.13 0.13 0.14 0.16 0.16 0.19 0.21 0.17 0.14 0.14 0.16 0.18 0.24
0.12 0.14 0.17 0.18 0.14 0.15 0.13 0.10 0.08 0.07 0.04 0.03 0.04 0.03 0.02 0.02 0.02 0.02 0.03 0.03 0.04 0.04 0.06 0.09 0.11 0.14 0.15 0.15 0.17 0.15 0.15 0.14 0.13 0.14 0.15 0.15 0.15 0.15 0.17 0.17 0.15 0.15 0.17 0.21